Regional Weather Roundup
Issued by NWS

Home | Current Version | Previous Version | Graphics & Text | Print | Product List | Glossary On
Versions: 1 2 3 4 5 6 7 8 9 10 11 12 13 14 15 16 17 18 19 20 21 22 23 24 25 26 27 28 29 30 31 32 33 34 35 36 37 38 39 40 41 42 43 44 45 46 47 48 49 50
000
ASUS43 KTOP 141059
RWRKS

WEATHER ROUNDUP FOR KANSAS
NATIONAL WEATHER SERVICE GOODLAND KS
500 AM CST THU DEC 14 2017

NOTE:  "FAIR" INDICATES FEW OR NO CLOUDS BELOW 12,000 FEET WITH NO
SIGNIFICANT WEATHER AND/OR OBSTRUCTIONS TO VISIBILITY.

KSZ001>006-013>018-027>032-041>047-141200-
NORTHWEST KANSAS

CITY           SKY/WX    TMP DP  RH WIND       PRES   REMARKS
GOODLAND       MOCLDY    33  27  78 NW15      30.13R WCI  23
HAYS           MOCLDY    33  21  61 N6        30.11R
HILL CITY      CLOUDY    33  22  63 NW7       30.11
RUSSELL        PTCLDY    30  24  78 NW5       30.10R
$$

KSZ061>065-074>080-084>089-141200-
SOUTHWEST KANSAS

CITY           SKY/WX    TMP DP  RH WIND       PRES   REMARKS
DODGE CITY     CLOUDY    37  21  52 N9        30.11R
GARDEN CITY    CLOUDY    37  21  52 N12       30.12S WCI  29
GREAT BEND     CLOUDY    35  24  64 N6        30.11R
LIBERAL        PTCLDY    38  20  48 N13       30.11S WCI  30
$$

KSZ066>073-081>083-090>101-141200-
SOUTHEAST KANSAS

CITY           SKY/WX    TMP DP  RH WIND       PRES   REMARKS
CHANUTE        CLOUDY    30  25  81 NW5       30.04R
COFFEYVILLE    CLEAR     31  26  82 NW9       30.04S
HUTCHINSON     CLOUDY    35  26  69 N8        30.08R
MEDICINE LODGE   N/A     39  25  57 N14       30.06S WCI  31
NEWTON         PTCLDY    31  25  78 N12       30.06F WCI  22
PARSONS        CLEAR     28  26  92 N6        30.05R
WICHITA INTL   PTCLDY    36  26  67 N8        30.07R
WICHITA JABRA  PTCLDY    33  27  78 NW7       30.06F
WICHITA MCCONL PTCLDY    35  25  65 N9        30.06R
WINFIELD       CLOUDY    34  27  75 N5        30.06F
$$

KSZ007>012-019>026-033>040-048>060-102>105-141200-
NORTHEAST KANSAS

CITY           SKY/WX    TMP DP  RH WIND       PRES   REMARKS
CONCORDIA      CLOUDY    29  25  85 W8        30.08R
EMPORIA        CLOUDY    28  24  85 NW7       30.05R
LAWRENCE       CLOUDY    35  28  75 CALM      30.03S
MANHATTAN      CLOUDY    36  27  69 CALM      30.07R
OLATHE IND     CLOUDY    34  28  79 W5        30.03S
OLATHE EXE     CLOUDY    36  22  56 N10       30.02R WCI  28
SALINA         CLOUDY    31  25  78 NW8       30.10R
TOPEKA BILLARD CLOUDY    36  28  73 NW6       30.04R
TOPEKA FORBES  CLOUDY    37  28  70 NW8       30.04R
$$




USA.gov is the U.S. government's official web portal to all federal, state and local government web resources and services.